Date String (YYYY-MM-DD hh:mm:ss) UTC,Instrument flags,Ambient pressure (hPa),Sample flow (lpm),Bypass flow (lpm),Sample temperature (°C),Ambient temperature (°C),ASC tube jacket temperature (°C),LED temperature (°C),Box temperature (°C),Sample RH (%),Span deviation,Mass concentration (μg/m³),Mass concentration (μg/m³),Mass concentration (μg/m³)
DateTimeUTC,F1_M11,P_M11,Q1_M11,Q2_M11,T1_M11,T2_M11,T3_M11,T4_M11,T5_M11,U1_M11,ZSPAN_M11,X0_M11,X2_M11,X1_M11
2021-08-30 07:00:00,,0828.3,5.01,0.00,29.7,28.7,00.0,38.7,31.5,29.7,0002.3,0023.04,0016.44,0015.39
2021-08-30 07:01:00,,0828.1,5.01,0.00,29.7,28.8,00.0,38.7,31.6,29.5,0002.4,0023.67,0016.47,0015.40
2021-08-30 07:02:00,,0828.2,4.99,0.00,29.8,28.8,00.0,38.8,31.6,29.2,0002.4,0024.03,0016.48,0015.40
2021-08-30 07:03:00,,0828.1,5.00,0.00,29.8,28.9,00.0,38.8,31.6,29.1,0002.4,0023.63,0016.44,0015.39
2021-08-30 07:04:00,,0828.1,5.00,0.00,29.8,29.0,00.0,38.8,31.7,29.2,0002.2,0023.90,0016.44,0015.39
2021-08-30 07:05:00,,0828.1,5.01,0.00,29.9,29.0,00.0,38.8,31.7,29.0,0002.1,0024.35,0016.43,0015.40
2021-08-30 07:06:00,,0828.1,5.00,0.00,29.9,29.0,00.0,38.9,31.7,29.0,0001.9,0024.41,0016.41,0015.41
2021-08-30 07:07:00,,0828.1,4.99,0.00,29.9,29.1,00.0,38.9,31.7,29.1,0001.9,0023.77,0016.38,0015.39
2021-08-30 07:08:00,,0828.1,5.02,0.00,29.9,28.7,00.0,38.9,31.6,28.8,0001.9,0024.10,0016.43,0015.39
2021-08-30 07:09:00,,0828.1,4.99,0.00,29.8,26.9,00.0,38.9,31.2,28.9,0001.8,0024.56,0016.48,0015.41
2021-08-30 07:10:00,,0828.0,5.00,0.00,29.7,26.2,00.0,38.9,31.0,29.0,0002.0,0024.67,0016.53,0015.42
2021-08-30 07:11:00,,0828.0,4.99,0.00,29.6,26.4,00.0,38.8,31.0,29.1,0002.1,0024.12,0016.49,0015.42
2021-08-30 07:12:00,,0828.0,5.01,0.00,29.5,26.8,00.0,38.8,31.1,29.3,0001.8,0023.65,0016.46,0015.41
2021-08-30 07:13:00,,0828.0,4.99,0.00,29.5,27.2,00.0,38.7,31.1,29.5,0001.9,0022.81,0016.36,0015.39
2021-08-30 07:14:00,,0828.0,5.01,0.00,29.5,27.5,00.0,38.7,31.2,29.7,0002.1,0022.74,0016.35,0015.39
2021-08-30 07:15:00,,0828.0,5.00,0.00,29.5,27.8,00.0,38.7,31.2,29.6,0002.4,0022.41,0016.40,0015.39
2021-08-30 07:16:00,,0828.0,4.99,0.00,29.6,28.0,00.0,38.7,31.3,29.4,0002.4,0022.15,0016.44,0015.41
2021-08-30 07:17:00,,0828.0,5.00,0.00,29.6,28.2,00.0,38.7,31.3,29.2,0002.5,0022.54,0016.47,0015.41
2021-08-30 07:18:00,,0828.0,5.00,0.00,29.6,28.3,00.0,38.7,31.4,29.2,0002.4,0022.63,0016.53,0015.42
2021-08-30 07:19:00,,0828.0,4.99,0.00,29.6,28.4,00.0,38.7,31.4,29.1,0002.4,0022.07,0016.54,0015.43
2021-08-30 07:20:00,,0828.0,4.99,0.00,29.7,28.5,00.0,38.7,31.4,29.0,0002.4,0021.88,0016.49,0015.39
2021-08-30 07:21:00,,0828.0,5.00,0.00,29.7,28.6,00.0,38.7,31.4,28.8,0002.3,0021.94,0016.44,0015.40
2021-08-30 07:22:00,,0828.0,5.01,0.00,29.7,28.6,00.0,38.8,31.5,28.7,0002.4,0021.92,0016.43,0015.38
2021-08-30 07:23:00,,0828.0,5.00,0.00,29.7,28.7,00.0,38.8,31.5,28.5,0002.6,0021.82,0016.43,0015.39
2021-08-30 07:24:00,,0828.0,5.00,0.00,29.7,28.7,00.0,38.8,31.5,28.2,0002.5,0022.01,0016.44,0015.42
2021-08-30 07:25:00,,0828.0,5.00,0.00,29.8,28.8,00.0,38.8,31.5,27.7,0002.3,0022.04,0016.53,0015.48
2021-08-30 07:26:00,,0827.9,5.00,0.00,29.8,28.8,00.0,38.8,31.6,27.6,0002.2,0021.89,0016.51,0015.52
2021-08-30 07:27:00,,0827.9,5.00,0.00,29.8,28.8,00.0,38.8,31.6,27.5,0002.2,0021.80,0016.52,0015.56
2021-08-30 07:28:00,,0827.9,4.98,0.00,29.9,28.9,00.0,38.9,31.7,27.2,0002.2,0021.23,0016.55,0015.61
2021-08-30 07:29:00,,0827.9,5.00,0.00,29.9,28.9,00.0,38.9,31.7,27.1,0002.2,0022.16,0016.58,0015.68
2021-08-30 07:30:00,,0827.9,4.99,0.00,29.9,28.9,00.0,38.9,31.7,26.9,0002.2,0023.39,0016.69,0015.80
2021-08-30 07:31:00,,0827.9,5.01,0.00,29.9,29.0,00.0,38.9,31.7,26.9,0002.1,0023.49,0016.82,0015.92
2021-08-30 07:32:00,,0827.9,5.00,0.00,30.0,29.0,00.0,38.9,31.8,26.8,0002.2,0023.33,0016.94,0016.03
2021-08-30 07:33:00,,0827.9,5.01,0.00,29.9,27.8,00.0,38.9,31.5,26.8,0002.2,0023.30,0017.02,0016.14
2021-08-30 07:34:00,,0827.8,4.98,0.00,29.8,26.3,00.0,38.9,31.1,26.9,0002.3,0023.34,0017.10,0016.23
2021-08-30 07:35:00,,0827.9,5.01,0.00,29.7,26.1,00.0,38.9,31.1,27.2,0002.4,0023.04,0017.20,0016.33
2021-08-30 07:36:00,,0827.8,5.00,0.00,29.6,26.5,00.0,38.8,31.1,27.4,0002.5,0023.05,0017.22,0016.39
2021-08-30 07:37:00,,0827.9,5.00,0.00,29.5,27.0,00.0,38.8,31.1,27.6,0002.4,0023.45,0017.23,0016.41
2021-08-30 07:38:00,,0827.9,5.01,0.00,29.5,27.3,00.0,38.8,31.1,27.7,0002.4,0023.77,0017.31,0016.45
2021-08-30 07:39:00,,0828.0,4.99,0.00,29.5,27.6,00.0,38.8,31.2,27.8,0002.5,0023.90,0017.35,0016.47
2021-08-30 07:40:00,,0827.9,4.99,0.00,29.5,27.9,00.0,38.7,31.3,27.7,0002.4,0023.06,0017.39,0016.47
2021-08-30 07:41:00,,0827.8,5.01,0.00,29.6,28.1,00.0,38.7,31.3,27.6,0002.5,0021.97,0017.38,0016.44
2021-08-30 07:42:00,,0827.9,4.99,0.00,29.6,28.2,00.0,38.7,31.3,27.4,0002.5,0021.93,0017.33,0016.41
2021-08-30 07:43:00,,0827.9,5.00,0.00,29.6,28.3,00.0,38.7,31.4,27.3,0002.4,0022.57,0017.29,0016.37
2021-08-30 07:44:00,,0827.9,5.00,0.00,29.6,28.4,00.0,38.7,31.4,27.0,0002.4,0022.73,0017.35,0016.36
2021-08-30 07:45:00,,0827.8,4.99,0.00,29.7,28.5,00.0,38.7,31.4,26.8,0002.1,0022.98,0017.38,0016.36
2021-08-30 07:46:00,,0827.8,4.99,0.00,29.7,28.6,00.0,38.8,31.5,26.3,0002.1,0023.18,0017.44,0016.37
2021-08-30 07:47:00,,0827.8,5.00,0.00,29.7,28.6,00.0,38.8,31.5,26.0,0002.0,0023.38,0017.54,0016.42
2021-08-30 07:48:00,,0827.8,5.01,0.00,29.7,28.7,00.0,38.8,31.5,25.9,0001.7,0023.41,0017.60,0016.48
2021-08-30 07:49:00,,0827.8,4.99,0.00,29.8,28.7,00.0,38.8,31.5,25.6,0001.6,0023.60,0017.68,0016.56
2021-08-30 07:50:00,,0827.7,4.99,0.00,29.8,28.8,00.0,38.8,31.6,25.6,0001.6,0024.02,0017.71,0016.62
2021-08-30 07:51:00,,0827.7,5.00,0.00,29.8,28.8,00.0,38.8,31.6,25.9,0001.8,0024.50,0017.72,0016.66
2021-08-30 07:52:00,,0827.7,5.00,0.00,29.8,28.9,00.0,38.8,31.7,26.1,0001.7,0024.68,0017.71,0016.69
2021-08-30 07:53:00,,0827.7,5.01,0.00,29.9,28.9,00.0,38.9,31.7,25.4,0001.7,0025.18,0017.77,0016.74
2021-08-30 07:54:00,,0827.7,5.00,0.00,29.9,29.0,00.0,38.9,31.7,24.7,0001.5,0025.03,0017.84,0016.83
2021-08-30 07:55:00,,0827.7,5.00,0.00,29.9,29.0,00.0,38.9,31.7,24.6,0001.3,0025.23,0017.93,0016.92
2021-08-30 07:56:00,,0827.7,4.99,0.00,29.9,29.0,00.0,38.9,31.8,24.5,0001.5,0025.92,0018.03,0017.02
2021-08-30 07:57:00,,0827.7,5.01,0.00,29.9,29.0,00.0,38.9,31.7,23.9,0001.5,0026.23,0018.13,0017.11
2021-08-30 07:58:00,,0827.7,5.00,0.00,30.0,29.1,00.0,39.0,31.8,23.7,0001.7,0026.18,0018.17,0017.18
2021-08-30 07:59:00,,0827.7,5.00,0.00,30.0,29.0,00.0,39.0,31.8,23.0,0001.9,0025.93,0018.23,0017.24
